2023/03/12 00:00:00,33.3, 6.3
2023/03/12 00:10:00,33.3, 6.6
2023/03/12 00:20:00,33.2, 6.9
2023/03/12 00:30:00,33.1, 7.1
2023/03/12 00:40:00,33.0, 7.1
2023/03/12 00:50:00,33.0, 7.1
2023/03/12 01:00:00,33.0, 8.1
2023/03/12 01:10:00,32.9, 8.1
2023/03/12 01:20:00,32.9, 8.0
2023/03/12 01:30:00,32.8, 8.5
2023/03/12 01:40:00,32.8, 8.2
2023/03/12 01:50:00,32.7, 8.5
2023/03/12 02:00:00,32.7, 8.2
2023/03/12 02:10:00,32.6, 7.8
2023/03/12 02:20:00,32.7, 8.5
2023/03/12 02:30:00,32.6, 8.9
2023/03/12 02:40:00,32.6, 8.8
2023/03/12 02:50:00,32.6, 7.9
2023/03/12 03:00:00,32.6, 8.7
2023/03/12 03:10:00,32.5, 7.7
2023/03/12 03:20:00,32.5, 7.5
2023/03/12 03:30:00,32.4, 8.3
2023/03/12 03:40:00,32.2, 8.8
2023/03/12 03:50:00,32.1, 8.9
2023/03/12 04:00:00,32.2, 8.1
2023/03/12 04:10:00,32.3, 7.5
2023/03/12 04:20:00,32.3, 8.7
2023/03/12 04:30:00,32.3, 7.7
2023/03/12 04:40:00,32.3, 7.4
2023/03/12 04:50:00,32.4, 6.7
2023/03/12 05:00:00,32.4, 6.3
2023/03/12 05:10:00,32.5, 6.5
2023/03/12 05:20:00,32.6, 6.4
2023/03/12 05:30:00,32.5, 6.9
2023/03/12 05:40:00,32.5, 7.0
2023/03/12 05:50:00,32.6, 6.7
2023/03/12 06:00:00,32.7, 6.3
2023/03/12 06:10:00,32.8, 6.0
2023/03/12 06:20:00,32.8, 5.7
2023/03/12 06:30:00,32.6, 4.9
2023/03/12 06:40:00,32.5, 5.8
2023/03/12 06:50:00,32.3, 6.0
2023/03/12 07:00:00,32.2, 5.9
2023/03/12 07:10:00,32.0, 6.0
2023/03/12 07:20:00,32.1, 6.0
2023/03/12 07:30:00,32.1, 6.2
2023/03/12 07:40:00,32.3, 6.7
2023/03/12 07:50:00,32.7, 8.0
2023/03/12 08:00:00,32.4, 8.2
2023/03/12 08:10:00,32.5, 8.5
2023/03/12 08:20:00,32.5, 8.6
2023/03/12 08:30:00,32.5, 9.0
2023/03/12 08:40:00,32.7, 9.6
2023/03/12 08:50:00,32.8, 9.5
2023/03/12 09:00:00,32.8, 9.4
2023/03/12 09:10:00,32.8, 9.3
2023/03/12 09:20:00,32.9,11.6
2023/03/12 09:30:00,33.2,12.4
2023/03/12 09:40:00,34.2,13.4
2023/03/12 09:50:00,34.2,14.1
2023/03/12 10:00:00,33.6,14.2
2023/03/12 10:10:00,33.9,14.7
2023/03/12 10:20:00,33.9,14.3
2023/03/12 10:30:00,33.0,14.8
2023/03/12 10:40:00,33.4,15.4
2023/03/12 10:50:00,32.9,15.8
2023/03/12 11:00:00,33.2,15.7
2023/03/12 11:10:00,33.5,15.8
2023/03/12 11:20:00,32.9,14.7
2023/03/12 11:30:00,32.8,16.0
2023/03/12 11:40:00,32.6,16.5
2023/03/12 11:50:00,31.7,16.7
2023/03/12 12:00:00,31.4,16.6
2023/03/12 12:10:00,31.3,16.9
2023/03/12 12:20:00,31.1,16.3
2023/03/12 12:30:00,31.1,16.0
2023/03/12 12:40:00,30.3,14.4
2023/03/12 12:50:00,30.1,14.4
2023/03/12 13:00:00,30.2,14.3
2023/03/12 13:10:00,30.7,16.1
2023/03/12 13:20:00,30.8,16.5
2023/03/12 13:30:00,30.4,14.9
2023/03/12 13:40:00,30.8,15.5
2023/03/12 13:50:00,31.2,15.4
2023/03/12 14:00:00,31.9,16.6
2023/03/12 14:10:00,31.2,15.6
2023/03/12 14:20:00,31.2,16.3
2023/03/12 14:30:00,31.0,16.9
2023/03/12 14:40:00,30.7,18.0
2023/03/12 14:50:00,30.2,19.0
2023/03/12 15:00:00,29.8,19.5
2023/03/12 15:10:00,29.5,20.1
2023/03/12 15:20:00,29.2,19.6
2023/03/12 15:30:00,28.9,20.9
2023/03/12 15:40:00,28.2,19.9
2023/03/12 15:50:00,26.7,16.1
2023/03/12 16:00:00,27.8,20.6
2023/03/12 16:10:00,27.3,19.2
2023/03/12 16:20:00,26.2,15.3
2023/03/12 16:30:00,25.7,12.6
2023/03/12 16:40:00,26.0,13.9
2023/03/12 16:50:00,25.9,13.6
2023/03/12 17:00:00,25.4,12.3
2023/03/12 17:10:00,25.4,10.9
2023/03/12 17:20:00,25.3,10.1
2023/03/12 17:30:00,25.1,10.6
2023/03/12 17:40:00,25.0,10.4
2023/03/12 17:50:00,24.6,10.0
2023/03/12 18:00:00,24.0, 8.8
2023/03/12 18:10:00,23.9, 9.1
2023/03/12 18:20:00,24.0, 8.9
2023/03/12 18:30:00,24.0, 8.9
2023/03/12 18:40:00,24.0, 8.5
2023/03/12 18:50:00,23.9, 8.1
2023/03/12 19:00:00,23.9, 8.6
2023/03/12 19:10:00,23.9, 8.5
2023/03/12 19:20:00,23.9, 8.5
2023/03/12 19:30:00,24.0, 8.6
2023/03/12 19:40:00,24.0, 8.6
2023/03/12 19:50:00,23.7, 8.9
2023/03/12 20:00:00,23.6, 8.8
2023/03/12 20:10:00,23.4, 9.0
2023/03/12 20:20:00,23.3, 8.5
2023/03/12 20:30:00,23.3, 8.8
2023/03/12 20:40:00,23.0, 8.4
2023/03/12 20:50:00,22.9, 8.5
2023/03/12 21:00:00,22.9, 8.2
2023/03/12 21:10:00,22.9, 8.7
2023/03/12 21:20:00,22.9, 8.5
2023/03/12 21:30:00,22.8, 8.4
2023/03/12 21:40:00,22.7, 8.9
2023/03/12 21:50:00,22.7, 8.5
2023/03/12 22:00:00,22.7, 8.2
2023/03/12 22:10:00,22.6, 8.5
2023/03/12 22:20:00,22.7, 8.4
2023/03/12 22:30:00,22.7, 8.3
2023/03/12 22:40:00,22.7, 8.3
2023/03/12 22:50:00,22.5, 8.5
2023/03/12 23:00:00,22.5, 7.9
2023/03/12 23:10:00,22.8, 7.7
2023/03/12 23:20:00,22.7, 7.3
2023/03/12 23:30:00,22.7, 7.2
2023/03/12 23:40:00,22.2, 6.8
2023/03/12 23:50:00,22.0, 6.8
